AFR31UA LFPG-EDDH

Flight info

Callsign AFR31UA
Flight time 1h 4m
Altitude 35000
Route RANUX DCT VALEK DCT LUTAX DCT DIK N853 ARCKY DCT IBESA DCT BASUM/N0453F360 Y850 PIXUR/N0450F370 Y850 MUBZI M105 RIBSO RIBSO3S
Aircraft A320/M-SDE3FGHIRWY/LB1

Departure

Time 2026-04-25 14:27
Airport Charles de Gaulle International Airport (LFPG)

Arrival

Time 2026-04-25 15:32
Airport Hamburg Helmut Schmidt Airport (EDDH)
Time Latitude Longitude Altitude Speed Heading
2026-04-25 13:48 49.00691 2.57559 359 ft 0 kts 226°
2026-04-25 13:50 49.00692 2.57559 359 ft 0 kts 226°
2026-04-25 14:14 49.00705 2.57580 363 ft 4 kts 232°
2026-04-25 14:15 49.00719 2.57614 359 ft 4 kts 248°
2026-04-25 14:15 49.00722 2.57626 359 ft 4 kts 257°
2026-04-25 14:15 49.00716 2.57665 362 ft 0 kts 355°
2026-04-25 14:19 49.00719 2.57665 362 ft 2 kts 355°
2026-04-25 14:19 49.00739 2.57663 358 ft 5 kts 356°
2026-04-25 14:19 49.00786 2.57693 357 ft 9 kts 32°
2026-04-25 14:19 49.00836 2.57731 357 ft 7 kts 11°
2026-04-25 14:20 49.00881 2.57687 356 ft 10 kts 294°
2026-04-25 14:20 49.00884 2.57650 354 ft 11 kts 270°
2026-04-25 14:20 49.00870 2.57418 354 ft 13 kts 265°
2026-04-25 14:20 49.00863 2.57277 354 ft 13 kts 264°
2026-04-25 14:21 49.00854 2.57128 356 ft 15 kts 265°
2026-04-25 14:21 49.00846 2.56956 354 ft 17 kts 265°
2026-04-25 14:21 49.00836 2.56763 359 ft 19 kts 265°
2026-04-25 14:21 49.00823 2.56548 354 ft 21 kts 265°
2026-04-25 14:22 49.00804 2.56315 356 ft 23 kts 261°
2026-04-25 14:22 49.00780 2.56068 361 ft 24 kts 262°
2026-04-25 14:22 49.00756 2.55809 354 ft 25 kts 261°
2026-04-25 14:22 49.00734 2.55564 361 ft 17 kts 264°
2026-04-25 14:23 49.00724 2.55400 354 ft 15 kts 264°
2026-04-25 14:23 49.00678 2.55261 358 ft 14 kts 219°
2026-04-25 14:23 49.00592 2.55267 354 ft 13 kts 163°
2026-04-25 14:23 49.00485 2.55314 359 ft 19 kts 164°
2026-04-25 14:24 49.00352 2.55371 362 ft 20 kts 164°
2026-04-25 14:24 49.00219 2.55429 362 ft 19 kts 164°
2026-04-25 14:24 49.00095 2.55483 358 ft 18 kts 164°
2026-04-25 14:24 48.99983 2.55532 360 ft 16 kts 164°
2026-04-25 14:25 48.99889 2.55593 358 ft 14 kts 139°
2026-04-25 14:25 48.99840 2.55707 357 ft 12 kts 109°
2026-04-25 14:25 48.99803 2.55800 356 ft 9 kts 143°
2026-04-25 14:25 48.99788 2.55796 360 ft 4 kts 211°
2026-04-25 14:26 48.99695 2.55815 357 ft 10 kts 172°
2026-04-25 14:26 48.99628 2.55829 354 ft 9 kts 167°
2026-04-25 14:26 48.99603 2.55898 354 ft 7 kts 84°
2026-04-25 14:26 48.99611 2.56044 354 ft 34 kts 85°
2026-04-25 14:27 48.99649 2.56782 355 ft 102 kts 85°
2026-04-25 14:27 48.99722 2.58158 356 ft 155 kts 85°
2026-04-25 14:27 48.99834 2.59926 736 ft 168 kts 83°
2026-04-25 14:27 48.99917 2.61657 1446 ft 165 kts 84°
2026-04-25 14:28 49.00014 2.63385 2113 ft 162 kts 82°
2026-04-25 14:28 49.00173 2.65167 2537 ft 181 kts 80°
2026-04-25 14:28 49.00367 2.67164 2933 ft 201 kts 80°
2026-04-25 14:28 49.00594 2.69400 3288 ft 226 kts 80°
2026-04-25 14:29 49.00842 2.71891 3704 ft 250 kts 80°
2026-04-25 14:29 49.01107 2.74593 4346 ft 263 kts 80°
2026-04-25 14:29 49.01377 2.77376 5200 ft 268 kts 80°
2026-04-25 14:29 49.01649 2.80209 6071 ft 272 kts 81°
2026-04-25 14:30 49.01925 2.83079 6946 ft 276 kts 80°
2026-04-25 14:30 49.02492 2.88942 8555 ft 284 kts 80°
2026-04-25 14:30 49.02778 2.91946 9369 ft 288 kts 81°
2026-04-25 14:31 49.03066 2.94988 10158 ft 292 kts 80°
2026-04-25 14:31 49.03364 2.98119 10611 ft 309 kts 81°
2026-04-25 14:31 49.03686 3.01489 10836 ft 333 kts 81°
2026-04-25 14:31 49.04030 3.05103 11013 ft 356 kts 81°
2026-04-25 14:32 49.04391 3.08903 11147 ft 378 kts 81°
2026-04-25 14:32 49.04771 3.12971 11267 ft 397 kts 81°
2026-04-25 14:32 49.05164 3.17206 11669 ft 407 kts 81°
2026-04-25 14:32 49.05558 3.21502 12236 ft 412 kts 81°
2026-04-25 14:33 49.05955 3.25847 12833 ft 416 kts 81°
2026-04-25 14:33 49.06226 3.28808 13232 ft 419 kts 81°
2026-04-25 14:33 49.06765 3.34666 13979 ft 424 kts 81°
2026-04-25 14:33 49.07043 3.37691 14325 ft 427 kts 81°
2026-04-25 14:34 49.07450 3.42137 14793 ft 431 kts 81°
2026-04-25 14:34 49.07863 3.46682 15269 ft 434 kts 81°
2026-04-25 14:34 49.08275 3.51264 15731 ft 438 kts 81°
2026-04-25 14:34 49.08685 3.55886 16201 ft 441 kts 81°
2026-04-25 14:35 49.09054 3.60543 16645 ft 444 kts 82°
2026-04-25 14:35 49.09381 3.65260 17086 ft 448 kts 83°
2026-04-25 14:35 49.09686 3.70011 17509 ft 452 kts 83°
2026-04-25 14:35 49.09983 3.74798 17923 ft 455 kts 83°
2026-04-25 14:36 49.10279 3.79613 18330 ft 458 kts 83°
2026-04-25 14:36 49.10585 3.84472 18675 ft 461 kts 83°
2026-04-25 14:36 49.10901 3.89356 19011 ft 463 kts 83°
2026-04-25 14:36 49.11221 3.94260 19337 ft 466 kts 83°
2026-04-25 14:37 49.11546 3.99191 19664 ft 468 kts 83°
2026-04-25 14:37 49.11872 4.04143 19975 ft 470 kts 83°
2026-04-25 14:37 49.12307 4.09092 20276 ft 471 kts 75°
2026-04-25 14:37 49.13425 4.13755 20562 ft 470 kts 60°
2026-04-25 14:38 49.15293 4.17847 20841 ft 468 kts 45°
2026-04-25 14:38 49.17699 4.21183 21119 ft 467 kts 38°
2026-04-25 14:38 49.20189 4.24394 21386 ft 469 kts 38°
2026-04-25 14:38 49.22554 4.27876 21690 ft 474 kts 45°
2026-04-25 14:39 49.24804 4.31579 21944 ft 476 kts 45°
2026-04-25 14:39 49.27058 4.35307 22189 ft 478 kts 45°
2026-04-25 14:39 49.29318 4.39066 22436 ft 480 kts 45°
2026-04-25 14:39 49.31582 4.42845 22667 ft 482 kts 45°
2026-04-25 14:40 49.33848 4.46641 22920 ft 483 kts 45°
2026-04-25 14:40 49.36115 4.50452 23163 ft 484 kts 45°
2026-04-25 14:40 49.38388 4.54274 23380 ft 486 kts 45°
2026-04-25 14:40 49.40672 4.58114 23599 ft 487 kts 45°
2026-04-25 14:41 49.42957 4.61960 23872 ft 486 kts 45°
2026-04-25 14:41 49.45235 4.65793 24154 ft 485 kts 45°
2026-04-25 14:41 49.47508 4.69612 24446 ft 483 kts 45°
2026-04-25 14:41 49.49769 4.73422 24732 ft 482 kts 45°
2026-04-25 14:42 49.52028 4.77236 25017 ft 481 kts 45°
2026-04-25 14:42 49.53518 4.79757 25203 ft 481 kts 45°
2026-04-25 14:42 49.56521 4.84860 25594 ft 480 kts 45°
2026-04-25 14:42 49.58729 4.88617 25885 ft 479 kts 45°
2026-04-25 14:43 49.60965 4.92420 26198 ft 478 kts 45°
2026-04-25 14:43 49.63193 4.96210 26521 ft 476 kts 44°
2026-04-25 14:43 49.65410 4.99985 26906 ft 474 kts 44°
2026-04-25 14:43 49.67620 5.03755 27216 ft 473 kts 44°
2026-04-25 14:44 49.69827 5.07534 27509 ft 473 kts 44°
2026-04-25 14:44 49.72032 5.11311 27806 ft 473 kts 44°
2026-04-25 14:44 49.74234 5.15086 28104 ft 473 kts 44°
2026-04-25 14:44 49.76437 5.18865 28408 ft 473 kts 44°
2026-04-25 14:45 49.77892 5.21364 28619 ft 472 kts 44°
2026-04-25 14:45 49.80836 5.26433 29031 ft 472 kts 45°
2026-04-25 14:45 49.83027 5.30217 29345 ft 472 kts 45°
2026-04-25 14:45 49.85219 5.34006 29675 ft 472 kts 45°
2026-04-25 14:46 49.87406 5.37796 30022 ft 471 kts 45°
2026-04-25 14:46 49.89590 5.41581 30336 ft 471 kts 45°
2026-04-25 14:46 49.91772 5.45365 30614 ft 470 kts 45°
2026-04-25 14:46 49.93946 5.49141 30958 ft 467 kts 44°
2026-04-25 14:47 49.96105 5.52896 31293 ft 465 kts 44°
2026-04-25 14:47 49.97531 5.55381 31489 ft 465 kts 44°
2026-04-25 14:47 50.00402 5.60398 31869 ft 464 kts 44°
2026-04-25 14:47 50.02544 5.64147 32161 ft 464 kts 44°
2026-04-25 14:48 50.04687 5.67902 32439 ft 463 kts 44°
2026-04-25 14:48 50.06824 5.71644 32724 ft 462 kts 44°
2026-04-25 14:48 50.08957 5.75390 33005 ft 462 kts 44°
2026-04-25 14:48 50.11087 5.79137 33289 ft 462 kts 45°
2026-04-25 14:49 50.13203 5.82892 33573 ft 461 kts 45°
2026-04-25 14:49 50.15280 5.86622 33851 ft 461 kts 45°
2026-04-25 14:49 50.17373 5.90412 34119 ft 461 kts 45°
2026-04-25 14:49 50.19461 5.94208 34376 ft 461 kts 45°
2026-04-25 14:50 50.21545 5.98002 34633 ft 460 kts 45°
2026-04-25 14:50 50.23623 6.01783 34911 ft 458 kts 45°
2026-04-25 14:50 50.25698 6.05554 35105 ft 457 kts 45°
2026-04-25 14:50 50.27785 6.09340 35151 ft 460 kts 45°
2026-04-25 14:51 50.32565 6.15922 35152 ft 457 kts 29°
2026-04-25 14:51 50.37902 6.21359 35148 ft 458 kts 29°
2026-04-25 14:52 50.43233 6.26835 35149 ft 458 kts 29°
2026-04-25 14:52 50.47657 6.31411 35151 ft 458 kts 30°
2026-04-25 14:53 50.53889 6.37827 35170 ft 458 kts 29°
2026-04-25 14:53 50.59249 6.43258 35168 ft 458 kts 29°
2026-04-25 14:54 50.64602 6.48700 35171 ft 458 kts 29°
2026-04-25 14:54 50.69956 6.54182 35190 ft 458 kts 29°
2026-04-25 14:55 50.75261 6.59632 35183 ft 458 kts 29°
2026-04-25 14:55 50.80598 6.65125 35179 ft 457 kts 29°
2026-04-25 14:56 50.85921 6.70624 35172 ft 457 kts 29°
2026-04-25 14:56 50.91244 6.76140 35176 ft 457 kts 29°
2026-04-25 14:57 50.96570 6.81654 35177 ft 457 kts 29°
2026-04-25 14:57 51.01890 6.87180 35178 ft 457 kts 29°
2026-04-25 14:58 51.07206 6.92717 35178 ft 457 kts 29°
2026-04-25 14:58 51.12520 6.98291 35184 ft 457 kts 29°
2026-04-25 14:59 51.17822 7.03863 35182 ft 457 kts 29°
2026-04-25 14:59 51.23134 7.09452 35182 ft 457 kts 29°
2026-04-25 15:00 51.28437 7.15049 35176 ft 456 kts 29°
2026-04-25 15:00 51.33734 7.20650 35196 ft 456 kts 29°
2026-04-25 15:01 51.39020 7.26264 35209 ft 455 kts 29°
2026-04-25 15:01 51.44292 7.31890 35196 ft 455 kts 29°
2026-04-25 15:02 51.49556 7.37509 35191 ft 454 kts 29°
2026-04-25 15:02 51.54824 7.43139 35187 ft 454 kts 29°
2026-04-25 15:03 51.60078 7.48769 35192 ft 454 kts 28°
2026-04-25 15:03 51.65325 7.54407 35162 ft 453 kts 29°
2026-04-25 15:04 51.70560 7.60053 35159 ft 453 kts 29°
2026-04-25 15:04 51.75784 7.65725 35155 ft 453 kts 29°
2026-04-25 15:05 51.81006 7.71406 35182 ft 452 kts 28°
2026-04-25 15:06 51.88830 7.79930 35168 ft 452 kts 28°
2026-04-25 15:06 51.94039 7.85621 35172 ft 451 kts 28°
2026-04-25 15:07 51.99245 7.91332 35160 ft 451 kts 28°
2026-04-25 15:07 52.04411 7.97007 35172 ft 451 kts 28°
2026-04-25 15:08 52.09602 8.02720 35164 ft 450 kts 28°
2026-04-25 15:08 52.14783 8.08443 35156 ft 450 kts 28°
2026-04-25 15:09 52.19958 8.14191 35150 ft 450 kts 28°
2026-04-25 15:09 52.27712 8.22832 35155 ft 449 kts 28°
2026-04-25 15:10 52.32876 8.28606 35145 ft 449 kts 28°
2026-04-25 15:11 52.40185 8.38135 35134 ft 464 kts 48°
2026-04-25 15:11 52.43865 8.46875 35118 ft 466 kts 50°
2026-04-25 15:12 52.49282 8.60149 35130 ft 467 kts 50°
2026-04-25 15:12 52.51703 8.66089 35122 ft 467 kts 50°
2026-04-25 15:13 52.58320 8.82344 34928 ft 467 kts 50°
2026-04-25 15:13 52.60120 8.86797 34684 ft 467 kts 50°
2026-04-25 15:14 52.61915 8.91261 34442 ft 467 kts 50°
2026-04-25 15:14 52.63711 8.95722 34200 ft 467 kts 50°
2026-04-25 15:14 52.65522 9.00165 33942 ft 467 kts 50°
2026-04-25 15:14 52.67350 9.04598 33700 ft 466 kts 50°
2026-04-25 15:15 52.69180 9.09009 33436 ft 465 kts 50°
2026-04-25 15:15 52.71011 9.13414 33093 ft 465 kts 50°
2026-04-25 15:15 52.72222 9.16336 32389 ft 467 kts 50°
2026-04-25 15:15 52.74056 9.20773 31355 ft 469 kts 50°
2026-04-25 15:16 52.75891 9.25246 30422 ft 469 kts 50°
2026-04-25 15:16 52.77718 9.29724 29234 ft 472 kts 50°
2026-04-25 15:16 52.81389 9.38747 26997 ft 474 kts 50°
2026-04-25 15:17 52.85095 9.47872 24530 ft 482 kts 50°
2026-04-25 15:17 52.86970 9.52495 23329 ft 484 kts 50°
2026-04-25 15:17 52.88835 9.57112 22391 ft 480 kts 50°
2026-04-25 15:18 52.90676 9.61689 21548 ft 474 kts 50°
2026-04-25 15:18 52.94293 9.70688 19871 ft 465 kts 50°
2026-04-25 15:18 52.96085 9.75135 19053 ft 462 kts 50°
2026-04-25 15:19 52.97867 9.79561 18217 ft 460 kts 50°
2026-04-25 15:19 52.99038 9.82476 17643 ft 457 kts 50°
2026-04-25 15:19 53.01356 9.88273 16663 ft 451 kts 50°
2026-04-25 15:19 53.03078 9.92601 15928 ft 447 kts 50°
2026-04-25 15:20 53.04776 9.96881 15320 ft 440 kts 50°
2026-04-25 15:20 53.06452 10.01112 14680 ft 436 kts 50°
2026-04-25 15:20 53.08114 10.05305 14037 ft 432 kts 50°
2026-04-25 15:20 53.09761 10.09459 13364 ft 429 kts 50°
2026-04-25 15:21 53.11395 10.13589 12691 ft 425 kts 50°
2026-04-25 15:21 53.13014 10.17682 12010 ft 419 kts 50°
2026-04-25 15:21 53.14585 10.21679 10834 ft 409 kts 50°
2026-04-25 15:21 53.16112 10.25595 10044 ft 393 kts 50°
2026-04-25 15:22 53.17520 10.29284 9790 ft 363 kts 50°
2026-04-25 15:22 53.18803 10.32711 9644 ft 333 kts 49°
2026-04-25 15:22 53.20224 10.35437 9428 ft 293 kts 27°
2026-04-25 15:22 53.21928 10.36790 8904 ft 263 kts
2026-04-25 15:23 53.23674 10.36669 8253 ft 240 kts 335°
2026-04-25 15:23 53.25119 10.35439 7762 ft 235 kts 324°
2026-04-25 15:23 53.26528 10.34035 7639 ft 238 kts 325°
2026-04-25 15:23 53.27955 10.32634 7514 ft 238 kts 325°
2026-04-25 15:24 53.29391 10.31224 7162 ft 240 kts 325°
2026-04-25 15:24 53.30833 10.29810 6762 ft 239 kts 325°
2026-04-25 15:24 53.32269 10.28398 6280 ft 240 kts 325°
2026-04-25 15:24 53.33233 10.27444 6016 ft 237 kts 325°
2026-04-25 15:25 53.35118 10.25576 5472 ft 235 kts 325°
2026-04-25 15:25 53.36538 10.24169 5050 ft 234 kts 325°
2026-04-25 15:25 53.37914 10.22797 4654 ft 233 kts 324°
2026-04-25 15:25 53.39303 10.21406 4219 ft 233 kts 325°
2026-04-25 15:26 53.40689 10.20029 4019 ft 223 kts 325°
2026-04-25 15:26 53.41974 10.18754 3777 ft 215 kts 325°
2026-04-25 15:26 53.43230 10.17505 3663 ft 203 kts 325°
2026-04-25 15:26 53.44411 10.16329 3589 ft 194 kts 326°
2026-04-25 15:27 53.45564 10.15176 3511 ft 188 kts 326°
2026-04-25 15:27 53.46647 10.14095 3427 ft 175 kts 326°
2026-04-25 15:27 53.48695 10.12044 3281 ft 170 kts 326°
2026-04-25 15:28 53.49674 10.11087 3210 ft 156 kts 327°
2026-04-25 15:28 53.50602 10.10279 2945 ft 142 kts 328°
2026-04-25 15:28 53.51449 10.09557 2734 ft 133 kts 327°
2026-04-25 15:28 53.52249 10.08850 2559 ft 130 kts 326°
2026-04-25 15:29 53.53045 10.08136 2384 ft 129 kts 327°
2026-04-25 15:29 53.53858 10.07487 2290 ft 129 kts 329°
2026-04-25 15:29 53.54677 10.06864 2174 ft 129 kts 328°
2026-04-25 15:29 53.55462 10.06151 1938 ft 128 kts 327°
2026-04-25 15:30 53.55997 10.05687 1736 ft 127 kts 327°
2026-04-25 15:30 53.57036 10.04794 1467 ft 127 kts 327°
2026-04-25 15:30 53.57825 10.04110 1312 ft 128 kts 327°
2026-04-25 15:30 53.58609 10.03421 1146 ft 126 kts 326°
2026-04-25 15:31 53.59395 10.02764 920 ft 125 kts 326°
2026-04-25 15:31 53.60183 10.02089 716 ft 130 kts 326°
2026-04-25 15:31 53.60979 10.01383 543 ft 128 kts 327°
2026-04-25 15:31 53.61774 10.00696 332 ft 129 kts 326°
2026-04-25 15:32 53.62556 10.00016 147 ft 127 kts 327°
2026-04-25 15:32 53.63320 9.99356 48 ft 114 kts 327°
2026-04-25 15:32 53.63835 9.98903 49 ft 47 kts 333°
2026-04-25 15:33 53.63940 9.98933 50 ft 15 kts 125°
2026-04-25 15:33 53.63865 9.99114 49 ft 17 kts 125°
2026-04-25 15:33 53.63797 9.99268 48 ft 16 kts 127°
2026-04-25 15:33 53.63736 9.99408 47 ft 14 kts 126°
2026-04-25 15:34 53.63682 9.99534 48 ft 13 kts 126°
2026-04-25 15:34 53.63632 9.99651 49 ft 11 kts 125°
2026-04-25 15:34 53.63613 9.99696 49 ft 4 kts 126°
2026-04-25 15:34 53.63604 9.99718 48 ft 4 kts 126°
2026-04-25 15:35 53.63541 9.99863 51 ft 10 kts 126°
2026-04-25 15:35 53.63495 9.99967 50 ft 13 kts 127°
2026-04-25 15:35 53.63463 10.00041 47 ft 7 kts 126°
2026-04-25 15:36 53.63352 9.99907 48 ft 13 kts 232°
2026-04-25 15:36 53.63293 9.99787 48 ft 14 kts 230°
2026-04-25 15:36 53.63215 9.99767 47 ft 12 kts 154°
2026-04-25 15:37 53.63143 9.99828 48 ft 11 kts 152°
2026-04-25 15:37 53.63077 9.99888 47 ft 10 kts 152°
2026-04-25 15:37 53.63016 9.99943 48 ft 10 kts 152°
2026-04-25 15:37 53.62960 9.99993 48 ft 9 kts 152°
2026-04-25 15:38 53.62930 10.00022 48 ft 4 kts 141°
2026-04-25 15:38 53.62935 10.00034 48 ft 1 kts 44°
2026-04-25 15:38 53.62943 10.00074 48 ft 6 kts 111°
2026-04-25 15:38 53.62919 10.00141 48 ft 7 kts 122°
2026-04-25 15:39 53.62895 10.00204 46 ft 4 kts 123°
2026-04-25 15:39 53.62889 10.00220 46 ft 0 kts 122°